Location: Oroua River
(40.4333°S, 175.4333°E)
Time: 18:08:38
(UTC+00:00)

MSX - Pass Details

Date: 03 October 2023
Orbit: 895 x 905 km, 98.9° (Epoch: 28 November)

Event Time Altitude Azimuth Distance (km) Brightness Sun altitude
Exits shadow 13:05:38 18° 181° (S) 2,072 6.1 -43.6°
Drops below altitude 10° 13:07:08 10° 185° (S) 2,619 6.8 -43.5°
Sets 13:09:36 0° 189° (S) 3,568 7.6 -43.3°
